Newburgh, NY

6:51 PM EST on December 06, 2019 (GMT -0500)
Stewart International

Weather History for KSWF - November, 2019

Change the Weather History Date:

Saturday, November 16, 2019

  Actual Average Record
Temperature  
Mean Temperature 29 °F -  
Max Temperature 35 °F 47 °F 76 °F (1993)
Min Temperature 23 °F 30 °F 17 °F (1976)
Degree Days  
Heating Degree Days 36    
Moisture  
Dew Point 11 °F    
Average Humidity 46    
Maximum Humidity 70    
Minimum Humidity 30    
Precipitation  
Precipitation 0.00 in - - ()
Sea Level Pressure  
Sea Level Pressure 30.43 in    
Wind  
Wind Speed 7 mph (NE)    
Max Wind Speed 16 mph    
Max Gust Speed 17 mph    
Visibility 10 miles    
Events      
Averages and records for this station are not official NWS values.
T = Trace of Precipitation, MM = Missing Value Source: NWS Daily Summary

Daily Weather History Graph

Daily Weather History Graph

Search for Another Location

Airport or City:

Astronomy

Nov. 16, 2019 Rise Set
Actual Time 6:45 AM EST 4:35 PM EST
Civil Twilight 6:16 AM EST 5:05 PM EST
Nautical Twilight 5:42 AM EST 5:39 PM EST
Astronomical Twilight 5:09 AM EST 6:11 PM EST
Moon 8:04 PM EST (11/16) 10:38 AM EST (11/16)
Length of Visible Light 10h 49m
Length of Day
9h 49m
Waning Gibbous, 82% of the Moon is Illuminated
Nov 16
Waning Gibbous
Nov 19
Last Quarter
Nov 26
New
Dec 4
First Quarter
Dec 12
Full

Hourly Weather History & Observations

Time (EST) Temp. Windchill Dew Point Humidity Pressure Visibility Wind Dir Wind Speed Gust Speed Precip Events Conditions
1:45 AM 33.8 °F 25.8 °F 24.8 °F 70% 30.24 in 7.0 mi NW 10.4 mph - N/A   Clear
2:45 AM 35.6 °F - 23.0 °F 60% 30.29 in 10.0 mi Calm Calm - N/A   Mostly Cloudy
3:45 AM 32.0 °F - 19.4 °F 60% 30.31 in 10.0 mi Calm Calm - N/A   Mostly Cloudy
4:45 AM 32.0 °F - 19.4 °F 60% 30.31 in 10.0 mi Calm Calm - N/A   Mostly Cloudy
5:05 AM 28.4 °F - 12.2 °F 51% 30.37 in 10.0 mi Calm Calm - N/A   Mostly Cloudy
5:11 AM 28.4 °F - 12.2 °F 51% 30.37 in 10.0 mi Calm Calm - N/A   Mostly Cloudy
5:45 AM 28.4 °F 16.6 °F 10.4 °F 47% 30.40 in 10.0 mi ENE 16.1 mph - N/A   Clear
6:45 AM 26.6 °F 16.2 °F 10.4 °F 51% 30.45 in 10.0 mi NE 11.5 mph - N/A   Clear
7:45 AM 26.6 °F 20.0 °F 8.6 °F 47% 30.48 in 10.0 mi NNE 5.8 mph - N/A   Clear
8:45 AM 28.4 °F 19.7 °F 8.6 °F 43% 30.49 in 10.0 mi NE 9.2 mph - N/A   Clear
9:45 AM 30.2 °F 20.2 °F 8.6 °F 40% 30.50 in 10.0 mi East 12.7 mph - N/A   Clear
10:45 AM 32.0 °F 22.5 °F 10.4 °F 41% 30.50 in 10.0 mi NNE 12.7 mph 17.3 mph N/A   Clear
11:45 AM 33.8 °F 24.8 °F 6.8 °F 32% 30.48 in 10.0 mi NE 12.7 mph 17.3 mph N/A   Clear
12:45 PM 33.8 °F 24.8 °F 6.8 °F 32% 30.46 in 10.0 mi NE 12.7 mph 17.3 mph N/A   Clear
2:45 PM 35.6 °F 28.6 °F 6.8 °F 30% 30.44 in 10.0 mi ENE 9.2 mph - N/A   Clear
3:45 PM 33.8 °F 26.4 °F 6.8 °F 32% 30.45 in 10.0 mi ENE 9.2 mph - N/A   Clear
4:45 PM 32.0 °F 24.2 °F 10.4 °F 41% 30.45 in 10.0 mi ENE 9.2 mph - N/A   Clear
5:45 PM 30.2 °F 23.4 °F 8.6 °F 40% 30.46 in 10.0 mi ENE 6.9 mph - N/A   Clear
6:45 PM 28.4 °F 19.7 °F 8.6 °F 43% 30.48 in 10.0 mi ENE 9.2 mph - N/A   Clear
7:45 PM 26.6 °F 16.2 °F 8.6 °F 47% 30.49 in 10.0 mi ENE 11.5 mph - N/A   Clear
8:45 PM 24.8 °F 14.0 °F 6.8 °F 46% 30.49 in 10.0 mi ENE 11.5 mph - N/A   Clear
10:45 PM 23.0 °F 13.1 °F 6.8 °F 50% 30.45 in 10.0 mi ENE 9.2 mph - N/A   Clear
11:45 PM 23.0 °F 13.9 °F 6.8 °F 50% 30.46 in 10.0 mi East 8.1 mph - N/A   Clear